Wind_Speed
23 22 25 31 33 31 31 28 24 21 17 15 14 14 16 18 19 18 18 18 19 19 25 23 18 12 7 5 1 1 3 3 8 11 13 15 14 15 14 16 17 15 13 12 15 18 17 16 17 19 19 19 20 21 20 18 17 17 16 14 10 7 6 5 3 4 6 8 11 13 13 14 14 13 13 14 13 12 13 13 12 11 11 11 12 13
21 23 26 28 29 28 28 27 25 23 19 16 15 16 18 19 20 18 16 17 13 18 25 22 17 11 7 5 4 4 5 4 6 8 11 14 16 17 15 14 15 14 12 12 13 16 15 14 15 18 21 22 21 21 21 19 18 19 17 15 12 9 7 4 3 4 3 4 7 8 8 11 12 12 14 15 15 14 14 14 13 13 12 12 12 13
18 25 25 22 22 24 25 25 26 25 21 18 15 16 20 19 17 13 7 3 11 19 21 19 15 11 6 5 7 7 9 11 11 12 13 15 16 17 16 16 15 14 12 10 11 13 14 13 12 15 18 21 21 21 22 21 19 20 20 17 14 10 7 3 4 4 3 4 4 3 2 5 8 10 11 13 14 15 16 15 15 14 14 13 13 14
17 22 21 17 17 21 23 24 25 24 23 20 17 17 19 15 14 11 1 8 13 13 14 18 16 13 10 6 6 8 11 14 15 15 14 13 14 16 17 17 15 13 13 12 10 10 11 12 12 13 15 17 19 20 21 21 20 21 22 19 15 10 6 3 3 4 3 3 3 3 3 3 3 5 6 9 13 15 16 16 15 15 14 14 14 14
19 14 13 12 13 18 21 22 23 22 22 20 17 17 18 14 14 16 9 2 4 3 8 17 15 14 13 7 4 5 7 12 14 13 13 14 15 14 15 16 14 12 13 13 12 9 8 10 13 13 14 15 16 17 18 19 21 23 22 18 12 9 7 3 3 6 6 4 3 2 1 2 2 3 4 7 10 13 15 16 15 14 14 15 15 16
18 12 11 11 11 16 19 20 22 21 19 19 17 16 16 13 13 15 12 8 6 5 3 13 8 7 12 7 3 3 5 8 12 13 14 15 16 14 14 15 14 14 14 14 15 13 11 11 13 14 14 14 14 14 15 17 21 22 20 16 10 8 8 4 3 6 7 5 3 2 4 5 6 6 6 7 10 11 12 14 15 15 15 16 17 17
17 12 12 12 11 15 18 18 20 19 19 19 16 14 14 13 14 15 11 9 6 4 4 9 3 3 7 6 2 4 6 7 11 14 16 18 18 14 14 15 16 19 18 17 17 16 14 14 14 14 13 14 14 13 15 19 20 19 18 17 13 8 8 4 3 6 7 6 4 4 5 6 7 8 8 9 12 13 13 14 15 16 16 17 18 18
17 14 13 13 13 16 19 18 15 17 21 20 14 13 15 14 14 12 9 11 10 8 9 10 7 4 3 4 6 8 10 10 9 11 15 19 19 13 11 14 18 21 20 18 18 17 15 15 14 13 13 14 14 13 16 19 17 13 12 13 11 8 7 4 4 6 7 7 6 6 6 7 8 9 11 12 14 15 16 16 16 17 17 18 19 19
15 15 14 14 16 18 21 19 13 13 19 19 15 14 15 14 13 12 11 13 10 7 7 8 8 4 2 4 7 9 7 5 6 7 12 16 18 16 14 15 17 19 20 20 19 16 14 14 14 12 12 13 13 14 16 17 16 15 14 12 11 9 8 6 7 8 8 9 10 9 8 8 9 10 12 13 14 17 18 17 17 18 19 19 19 19
14 14 13 13 18 19 19 18 16 16 17 16 15 14 13 13 14 13 13 12 9 3 1 5 6 3 1 2 2 2 5 5 3 4 8 11 14 17 15 13 14 16 19 20 19 17 15 16 14 13 14 15 15 16 18 18 20 21 21 17 15 12 10 8 9 9 10 11 12 12 11 11 11 11 11 12 13 16 19 18 18 20 20 20 20 20
19 17 16 15 15 16 17 15 15 17 17 14 12 10 10 11 12 13 12 10 7 3 3 3 2 2 2 8 8 5 7 6 6 7 9 9 11 12 10 9 11 14 16 16 16 15 15 16 15 13 14 15 16 17 18 20 22 26 28 23 19 18 14 11 9 9 11 13 14 14 14 14 14 13 12 13 13 15 18 19 20 20 21 21 21 21
24 22 20 17 12 12 15 15 14 16 14 12 10 9 9 9 10 11 11 7 3 1 3 4 3 2 4 8 12 8 6 5 6 7 8 8 10 11 10 9 10 10 11 12 11 12 13 13 13 12 13 14 16 17 18 19 19 22 27 23 21 19 15 14 12 11 12 15 15 16 17 17 17 15 14 13 14 15 17 19 21 22 22 22 22 22
24 24 22 18 13 11 15 17 20 19 14 12 14 14 9 4 3 5 4 3 2 4 5 6 7 3 9 12 10 7 5 5 5 4 3 3 5 6 6 7 7 6 6 7 7 9 10 11 12 13 13 15 18 19 19 20 18 17 19 18 18 15 13 15 16 15 16 18 18 17 18 19 19 18 16 15 15 16 17 19 21 23 23 22 22 22
19 20 22 20 15 14 17 17 20 21 15 15 18 16 10 3 3 2 2 1 2 4 7 8 7 3 12 10 7 6 4 3 3 3 1 1 1 2 3 4 5 5 5 6 7 8 10 12 13 13 14 16 19 21 21 20 18 15 16 18 18 18 17 17 19 18 18 20 19 19 20 20 20 18 18 17 16 17 19 19 22 23 23 22 23 22
14 14 18 20 15 14 18 18 16 17 15 15 18 16 15 9 4 2 2 2 2 4 7 7 4 8 13 8 5 6 3 1 2 3 3 3 2 2 3 4 5 6 6 7 8 9 11 13 14 13 14 15 17 20 21 21 18 16 18 20 21 23 21 19 20 19 19 21 22 22 23 21 20 19 19 18 17 18 20 21 23 24 24 23 23 22
13 13 14 18 16 13 16 17 15 16 15 16 17 14 15 13 8 5 3 3 4 1 3 3 4 11 16 12 8 6 4 4 2 3 4 5 5 4 4 5 5 7 8 9 11 11 12 13 14 13 13 15 16 17 18 19 18 19 22 23 24 25 22 20 22 23 24 27 27 26 25 22 20 20 20 19 19 20 22 23 25 27 27 25 24 22
11 12 12 14 17 16 16 16 16 17 15 17 18 15 15 15 12 9 6 4 3 1 3 6 9 15 17 11 10 9 8 8 5 5 6 5 5 6 6 7 7 8 9 9 11 12 13 14 14 13 12 14 14 13 13 15 18 22 24 25 25 25 23 21 24 28 29 27 26 25 25 21 17 17 19 19 20 22 23 24 26 27 27 26 23 21
9 12 13 13 17 20 19 16 17 17 14 15 19 19 17 15 14 12 5 1 2 1 5 8 13 19 15 8 11 13 11 11 9 7 5 5 6 6 7 8 9 9 9 9 10 11 11 12 11 10 11 12 11 9 10 11 16 20 21 21 23 25 26 25 27 29 26 22 21 22 24 22 18 17 18 19 21 22 21 22 24 25 25 25 23 20
12 13 12 10 13 18 21 18 17 18 15 14 16 19 17 10 9 12 8 2 3 2 3 4 11 16 13 10 13 15 13 12 10 8 6 6 7 7 7 7 7 8 8 8 8 9 9 9 9 9 10 10 8 8 6 5 8 13 15 16 20 25 27 28 26 25 22 21 23 25 25 25 21 19 19 19 20 20 19 21 23 24 25 22 20 18
15 11 10 8 8 14 22 22 20 20 18 14 14 17 16 10 8 13 15 10 6 4 2 2 4 7 10 12 12 12 11 10 9 9 8 8 7 8 8 7 8 7 6 5 5 6 6 7 9 10 10 9 8 6 2 1 2 6 9 12 18 23 25 26 26 24 22 22 24 27 28 26 22 21 20 18 18 19 20 22 22 25 24 20 17 17
19 14 10 8 5 9 17 20 21 21 20 18 17 17 16 14 11 10 15 17 11 4 4 3 1 4 11 14 11 9 10 10 9 9 9 9 9 9 7 7 8 8 7 5 4 5 5 5 6 8 9 9 10 8 4 3 3 5 7 9 14 18 21 23 25 25 24 23 24 27 28 26 24 22 20 17 17 19 21 23 23 23 21 18 16 17
23 20 17 13 9 6 8 10 15 19 21 19 18 18 17 18 16 8 8 16 15 7 5 6 2 4 12 13 11 11 11 10 10 10 9 10 10 7 5 4 5 6 7 7 5 5 6 7 7 8 10 10 10 9 6 7 7 7 7 10 13 16 19 22 24 25 25 26 27 29 28 26 24 23 20 18 19 20 21 24 25 23 19 17 18 19
20 17 19 19 16 9 6 7 13 14 18 20 19 19 18 18 21 15 8 10 12 8 6 7 4 6 11 11 10 12 12 10 10 10 8 8 10 7 4 4 4 4 7 9 8 7 8 9 9 9 10 11 11 9 7 8 10 9 7 8 10 14 19 23 26 27 28 28 28 28 26 24 23 23 22 21 21 22 22 26 26 23 20 18 19 19
16 13 16 19 17 14 10 11 12 9 12 18 17 16 13 12 16 16 12 12 12 10 8 7 4 7 12 11 12 13 12 10 9 9 7 7 8 6 5 6 8 8 9 11 11 10 10 10 11 10 11 12 12 11 10 11 12 13 12 11 12 16 21 25 27 29 29 27 27 26 24 22 21 24 25 24 24 23 23 26 25 23 21 20 20 19
12 11 13 11 8 11 11 9 8 5 7 12 12 7 7 6 7 8 11 14 10 8 8 5 4 11 14 13 15 14 12 11 10 10 8 8 8 7 7 9 9 8 9 11 12 12 11 10 10 11 12 13 13 14 15 15 14 15 16 16 18 21 23 25 26 26 25 25 26 24 22 21 21 24 26 26 26 25 25 26 25 23 22 22 22 20
9 8 10 8 5 6 6 5 5 6 8 10 8 4 4 6 7 5 8 12 8 6 9 7 10 19 18 16 16 15 13 12 12 10 8 9 10 10 12 13 10 7 8 10 11 11 11 10 9 10 11 12 13 13 16 17 17 17 17 18 20 21 22 23 23 21 22 24 25 24 23 22 22 23 24 26 26 25 26 26 24 24 22 24 23 21
7 7 6 5 7 7 7 7 6 5 6 6 4 2 3 5 6 4 5 8 9 10 10 8 15 24 21 18 18 18 17 15 14 11 9 10 12 13 16 15 9 7 11 12 11 11 10 9 8 8 8 9 9 10 12 14 15 16 16 16 18 18 20 22 21 20 21 24 26 26 25 24 23 22 24 27 27 24 26 27 25 24 23 25 24 23
7 7 6 4 5 7 7 8 6 6 6 5 3 1 2 3 4 4 3 6 10 10 8 10 19 25 22 20 20 19 19 17 14 12 11 11 13 16 17 14 7 11 14 12 10 9 8 7 5 5 5 5 6 8 9 11 12 14 15 16 15 16 18 20 21 20 21 23 26 27 25 25 26 24 25 29 27 23 27 28 27 26 27 27 25 24
9 10 9 8 9 8 5 3 3 5 7 6 3 2 2 1 2 3 3 8 10 7 7 15 23 23 21 22 22 19 17 15 13 11 9 10 12 15 15 12 9 13 13 10 8 6 6 5 4 4 4 5 6 7 9 11 12 13 14 15 14 14 15 18 21 22 21 22 24 25 26 27 27 27 28 30 27 25 28 27 26 27 29 27 25 24
9 13 14 13 11 8 4 3 3 4 5 6 3 1 3 2 2 4 5 9 9 7 10 18 21 19 16 16 17 17 16 13 11 10 9 7 8 10 11 9 10 12 10 7 6 5 5 5 5 5 5 6 7 8 9 11 12 13 13 12 13 13 12 13 16 19 21 22 22 23 26 28 27 27 28 29 28 27 27 26 27 30 30 27 26 25
7 12 15 14 13 10 6 5 4 3 3 5 6 4 2 3 4 6 7 9 9 10 14 16 18 18 15 12 13 15 15 13 11 11 10 7 7 8 8 7 8 9 9 6 4 4 5 5 5 6 6 7 8 8 10 11 12 12 10 10 12 11 8 8 11 12 14 17 20 22 25 27 26 26 26 27 28 28 27 28 30 32 32 29 28 27
7 10 14 13 12 11 9 7 6 4 4 5 7 6 5 5 6 8 9 10 11 13 16 18 18 19 18 19 19 15 12 11 10 9 9 8 8 7 5 5 7 8 7 5 3 4 5 5 6 6 6 6 6 7 9 10 10 10 9 8 10 8 7 7 8 9 9 13 17 20 23 24 24 24 26 27 27 27 29 31 32 34 33 30 30 28
6 9 12 13 11 9 8 9 10 8 4 3 4 4 5 6 6 8 10 12 12 14 18 19 20 20 19 20 20 14 9 8 9 8 7 6 5 5 5 5 5 6 6 4 3 3 4 5 5 6 5 5 5 6 7 8 10 10 9 9 9 8 9 9 7 7 8 11 15 17 19 22 23 25 27 28 28 28 30 32 33 34 33 31 31 29
6 7 8 10 13 12 9 10 11 6 3 4 4 5 6 7 8 9 11 12 12 13 16 17 17 17 16 15 14 11 10 10 10 8 6 5 5 5 5 6 6 6 6 5 4 3 4 5 5 5 5 4 4 4 5 7 9 10 10 9 9 9 8 7 5 6 6 7 12 16 18 19 22 25 27 28 30 31 30 30 31 31 30 30 30 29
7 9 9 9 12 14 15 14 7 2 5 10 8 6 7 9 9 10 11 13 13 12 13 14 14 15 14 12 12 12 11 10 9 7 8 10 9 7 6 6 6 6 5 7 7 5 5 4 3 5 6 6 5 4 5 7 7 9 10 9 10 9 6 5 3 4 7 5 10 16 17 17 21 26 28 28 30 32 30 28 27 27 27 26 27 29
8 9 10 10 10 14 17 13 5 5 12 14 11 9 10 10 10 10 11 13 13 12 12 12 11 12 12 11 12 12 12 13 11 8 9 10 8 8 8 8 7 7 6 8 8 6 5 3 3 6 6 7 7 6 7 9 8 8 10 10 10 9 6 4 2 3 6 5 8 15 16 16 20 22 23 26 29 29 29 30 29 26 25 25 26 29
11 11 12 11 9 11 12 9 8 10 13 15 16 16 14 13 12 12 11 12 12 12 12 11 10 10 10 10 10 11 13 14 12 10 10 8 5 6 7 7 7 8 7 7 7 6 7 6 6 6 6 8 10 9 9 11 10 9 10 10 8 7 5 2 3 4 6 4 6 14 17 18 17 17 20 24 26 24 26 31 32 28 26 26 26 28
13 12 14 13 9 10 13 11 8 6 8 15 21 20 17 16 14 13 12 11 12 12 12 12 11 11 10 8 8 11 13 13 12 10 8 7 5 4 5 5 7 9 8 7 8 7 6 6 6 6 6 7 9 11 11 12 11 10 10 10 8 5 4 3 3 3 4 5 5 11 17 19 17 17 19 22 23 22 24 29 31 29 27 27 26 25
15 13 15 14 10 12 15 11 5 4 8 15 22 21 18 16 14 12 10 9 12 12 12 12 12 12 10 8 8 10 11 12 13 10 7 5 5 4 6 6 7 9 10 9 8 8 6 5 7 8 7 7 8 10 12 12 11 10 10 10 9 6 4 3 5 3 3 6 6 9 14 16 17 18 19 21 23 23 23 26 28 27 27 27 26 25
15 14 15 15 12 13 15 10 6 6 10 15 19 19 18 17 15 11 7 8 12 12 11 11 11 10 10 9 9 11 11 11 10 8 7 6 6 6 7 7 7 9 10 10 9 8 6 6 7 8 8 7 6 9 11 11 11 11 10 9 8 6 4 4 4 3 2 3 6 12 16 16 17 21 22 22 23 24 26 29 30 30 30 29 26 26
12 13 14 15 14 15 16 11 7 6 11 15 17 17 18 17 14 11 9 9 12 12 10 9 9 8 9 9 10 11 11 11 9 7 7 7 8 9 9 8 8 9 9 8 6 5 4 4 6 6 6 5 5 8 11 10 10 11 10 9 8 7 6 4 3 3 2 0 3 11 17 18 19 23 24 23 24 28 30 29 26 28 31 30 28 27
13 12 12 14 14 15 15 12 8 5 10 15 15 16 19 17 13 12 12 10 9 10 9 9 7 7 8 8 8 8 8 8 8 8 8 8 8 9 9 9 10 9 9 8 6 5 4 6 7 5 4 4 5 8 11 11 10 10 9 10 10 8 6 3 1 2 1 2 2 6 12 13 13 17 21 21 20 23 25 23 19 19 22 24 24 23
16 15 14 14 14 13 14 12 6 5 11 15 16 16 18 15 11 12 13 10 8 8 8 8 7 7 7 7 8 9 10 9 9 10 10 9 9 10 10 10 11 11 11 10 9 9 9 9 8 5 4 5 6 8 10 11 10 10 9 10 10 8 7 6 6 6 6 6 6 7 8 9 8 9 12 13 12 13 16 17 15 15 17 18 18 18
16 15 15 16 14 13 13 11 7 10 16 18 17 16 16 13 11 11 10 8 8 9 8 7 6 5 5 4 5 7 8 8 8 9 10 10 10 10 10 10 11 10 10 10 10 11 11 10 8 6 5 6 7 8 10 10 9 9 10 11 11 10 10 9 8 10 11 10 10 10 9 9 8 7 6 7 7 9 10 11 12 14 15 16 18 18
13 13 14 15 14 13 14 14 13 15 17 17 16 15 15 13 14 14 11 9 9 10 9 8 6 4 3 2 1 2 4 4 4 5 5 6 6 6 7 8 8 8 8 8 10 12 12 11 10 9 7 7 8 9 11 10 8 7 8 10 11 11 11 10 9 11 14 15 15 14 13 12 11 10 10 10 10 10 11 13 14 16 17 18 19 17
12 11 12 13 14 15 16 18 18 17 17 16 16 16 16 16 16 15 13 11 11 11 11 9 7 5 3 3 3 1 1 2 3 4 3 2 2 2 3 4 4 5 6 8 9 10 11 11 10 10 9 9 10 11 12 12 10 9 9 10 11 12 12 11 10 11 14 17 19 19 18 18 17 16 15 15 15 13 13 14 14 14 16 16 15 12
14 12 13 15 17 18 19 21 20 20 19 18 18 18 17 16 15 12 11 10 10 10 9 9 7 6 5 5 5 3 2 2 3 3 2 2 2 1 1 1 2 3 4 6 8 8 9 9 9 9 10 11 11 12 12 12 12 12 12 12 13 14 14 14 15 16 18 18 19 19 19 18 18 18 17 16 15 14 13 13 13 12 12 12 11 10
15 13 15 18 19 20 21 22 21 22 21 18 17 16 15 15 14 12 11 10 9 9 9 9 8 7 7 7 6 4 3 2 2 2 3 2 2 1 1 1 1 2 3 4 5 5 6 8 9 9 10 11 12 13 14 13 14 14 15 15 15 15 16 17 17 19 21 21 22 22 21 19 17 17 16 15 15 14 14 13 13 12 12 11 11 10
15 14 15 19 22 23 24 22 21 21 20 17 15 15 15 15 14 14 13 12 11 11 12 11 10 10 9 8 6 5 3 3 2 3 3 3 3 3 3 2 2 2 3 4 4 5 5 7 7 8 9 10 11 13 14 15 15 15 15 16 16 16 16 16 15 14 15 15 17 19 21 21 20 18 17 17 16 16 15 14 14 13 13 13 13 13
11 14 17 20 24 25 24 22 20 20 21 20 18 17 17 15 13 13 14 13 13 12 12 10 10 10 9 8 7 5 3 2 1 1 2 2 3 4 4 4 3 3 3 4 4 5 6 6 6 7 7 8 9 10 11 12 13 14 14 15 16 17 16 15 15 14 13 12 12 12 15 18 20 20 19 18 17 16 15 14 14 13 13 13 14 14
11 16 19 20 23 24 22 19 18 17 20 22 20 18 17 15 13 13 13 13 13 13 12 11 10 10 9 8 6 5 3 2 1 1 2 2 3 4 5 5 5 4 4 4 4 5 6 6 6 6 6 7 8 8 8 8 9 10 12 13 14 15 15 14 14 14 14 13 13 13 13 14 16 17 16 15 15 14 13 12 12 12 12 12 13 14
Wind_Direction
208 212 214 213 212 208 208 213 216 215 219 229 247 263 269 278 281 283 281 279 286 253 214 207 216 236 251 231 302 236 202 234 219 221 228 228 237 253 272 282 276 269 265 275 294 300 302 296 280 274 274 273 274 277 279 286 296 306 313 319 333 346 325 289 242 232 245 250 237 220 213 214 213 216 218 216 226 246 247 239 235 235 238 239 230 219
211 217 217 214 214 212 213 215 218 222 229 240 251 266 270 276 284 286 291 291 268 219 206 203 209 225 233 232 235 209 223 259 247 248 253 252 260 265 270 272 266 260 254 264 292 298 298 303 293 283 282 280 280 284 288 292 298 304 310 315 325 340 330 296 193 175 184 198 203 210 224 228 224 226 227 222 226 241 248 246 240 238 240 237 223 214
212 221 217 213 214 214 215 215 218 223 230 238 244 263 272 276 287 294 311 284 201 197 196 193 204 212 205 237 254 252 251 254 260 262 263 263 260 256 255 255 253 251 251 266 295 301 299 305 302 290 285 283 284 289 295 297 299 301 305 311 320 332 326 290 171 149 121 130 143 153 205 229 231 231 233 230 230 236 242 245 242 239 240 234 219 212
210 218 210 207 211 211 214 213 216 222 228 233 233 247 263 270 286 292 324 131 168 198 200 192 203 212 214 251 276 291 275 253 256 263 267 272 264 255 247 245 250 259 267 278 293 307 307 293 287 286 281 281 287 293 299 303 301 297 297 303 313 325 323 277 200 176 149 123 110 106 121 138 181 204 215 227 233 236 237 240 240 236 234 226 213 208
210 201 184 196 206 207 212 212 214 219 223 228 230 239 254 267 276 273 273 208 186 254 212 198 206 213 223 257 299 322 298 259 260 273 278 281 279 268 249 242 250 268 277 274 271 280 287 275 272 275 271 275 285 292 299 302 299 294 294 298 303 318 323 288 213 184 171 171 156 143 234 237 221 218 221 233 244 246 240 239 235 229 226 217 209 206
208 176 169 199 205 201 203 204 208 213 220 229 235 243 253 264 269 259 265 283 295 333 210 195 206 224 226 246 303 355 328 268 258 266 273 275 280 271 246 238 244 255 259 252 249 252 258 263 264 266 266 268 273 281 289 291 292 294 298 295 289 304 315 300 208 185 181 191 198 239 274 261 246 237 235 243 246 243 237 234 229 222 219 211 205 205
210 184 190 208 207 203 201 199 202 207 224 239 242 244 243 247 259 256 261 283 291 307 212 197 226 264 224 232 291 328 317 284 254 255 266 273 280 275 245 240 247 250 248 243 242 244 250 256 259 266 272 272 274 282 286 284 284 289 293 286 275 280 296 284 199 196 197 202 209 240 257 248 236 219 212 225 231 228 221 218 222 222 216 207 203 203
209 207 215 220 224 223 217 212 206 207 227 242 240 236 240 246 256 253 267 289 284 278 257 236 242 258 241 257 298 312 304 296 279 269 273 274 277 274 238 235 246 248 246 244 240 240 248 254 258 269 279 281 284 286 283 280 276 275 279 279 268 263 276 261 215 213 212 214 218 231 244 244 238 223 213 216 223 226 220 214 216 217 214 208 203 201
207 216 219 224 233 234 229 229 229 216 226 237 233 235 247 247 241 246 280 294 285 285 270 232 213 219 264 267 291 323 330 305 294 278 268 265 266 264 247 237 237 236 239 239 236 240 246 247 251 260 268 272 273 270 270 275 276 265 250 242 237 243 254 245 230 225 215 216 224 233 244 250 246 237 229 223 222 225 225 221 214 208 209 210 203 199
219 222 223 233 237 237 234 237 243 230 225 229 228 236 246 237 236 260 287 283 264 262 211 196 190 193 349 20 309 357 78 110 161 205 232 243 252 256 251 237 217 209 218 223 224 230 235 240 247 254 260 263 266 271 277 287 289 276 258 238 218 218 228 226 221 218 214 217 227 236 244 252 250 243 239 233 229 227 226 225 217 207 207 207 201 199
229 228 233 241 241 238 236 237 234 222 215 214 213 228 242 237 244 264 274 269 262 244 181 202 208 147 69 51 60 85 105 127 175 182 193 207 221 230 227 217 203 196 204 211 214 218 225 235 243 250 262 271 279 286 291 294 291 283 278 260 228 212 200 197 209 214 218 223 227 234 241 248 248 244 240 233 231 232 228 226 221 211 207 205 201 201
234 233 231 234 239 234 226 219 201 190 197 206 207 224 239 243 248 255 264 265 253 241 227 237 286 0 85 75 73 91 132 164 192 186 181 188 194 201 203 205 204 202 206 209 210 211 216 226 235 249 266 277 284 286 286 286 281 282 284 268 245 231 197 187 212 227 231 229 226 230 236 242 244 242 241 235 229 229 230 229 222 214 208 203 202 205
234 232 225 224 231 225 212 205 195 191 203 214 211 221 229 224 238 249 269 266 218 260 266 262 286 355 92 99 97 118 170 190 198 185 163 178 186 186 189 196 199 203 209 211 213 214 217 229 241 252 265 279 287 285 281 277 270 273 278 266 253 238 201 196 214 224 233 229 226 231 233 236 238 237 236 236 231 226 226 227 220 214 209 204 203 205
239 234 226 222 229 225 211 205 200 198 207 212 207 217 224 149 99 252 269 338 305 269 249 255 275 147 118 106 110 133 154 184 211 219 192 197 216 208 209 211 211 211 212 216 220 219 224 242 259 269 279 289 290 285 282 278 270 262 261 260 249 227 213 215 217 222 229 226 230 238 234 232 235 235 232 232 233 228 222 221 217 212 209 205 205 205
241 239 227 221 230 226 210 210 209 199 199 209 209 220 229 204 150 195 196 161 214 252 242 246 251 158 139 122 128 139 140 167 230 256 262 271 286 302 282 267 261 258 259 256 251 243 240 250 265 274 279 280 279 278 275 273 268 253 243 247 240 224 221 228 228 225 222 223 237 243 236 232 233 234 232 230 231 228 220 218 215 210 206 204 206 205
238 247 226 215 223 222 208 211 215 203 195 201 208 216 222 210 192 197 207 194 193 297 280 215 148 140 138 139 157 159 177 196 206 257 268 281 287 304 304 286 278 271 266 262 257 252 248 251 256 259 262 266 268 270 268 267 263 249 238 235 230 220 218 228 232 225 220 226 238 244 243 239 233 232 234 230 228 224 218 215 215 212 204 200 203 204
225 237 227 215 217 211 206 214 215 207 196 193 202 214 216 215 220 219 225 232 197 38 239 177 134 136 139 148 174 180 198 205 213 240 254 283 295 304 299 283 278 268 253 248 246 245 247 248 252 256 260 262 261 261 267 269 260 249 239 230 224 219 214 221 227 224 226 234 240 249 258 259 248 241 240 238 232 225 217 213 214 215 206 195 197 201
219 232 227 221 218 205 201 216 218 209 209 205 204 212 217 221 227 219 204 205 157 138 223 191 158 157 157 162 183 194 208 212 221 237 247 276 286 292 289 278 274 264 249 240 236 239 246 250 253 256 256 254 257 266 280 280 264 255 247 229 216 212 213 218 225 229 236 244 247 254 265 269 265 255 250 247 239 229 220 214 213 217 212 197 190 195
227 239 224 214 229 215 204 212 213 206 222 231 212 209 214 214 212 207 194 147 152 185 237 184 159 166 172 173 186 201 209 211 226 241 247 261 262 257 252 243 241 237 233 235 235 234 236 240 243 241 239 243 258 277 296 305 271 258 259 241 216 210 216 223 228 236 242 245 249 255 261 264 262 255 252 250 244 235 226 220 214 212 210 198 187 192
220 237 230 216 229 212 202 209 210 202 208 217 210 210 215 215 213 213 210 198 181 192 206 143 142 175 185 178 186 208 214 216 235 247 249 254 251 246 234 214 208 205 205 219 230 229 224 230 238 235 229 230 245 259 274 22 268 246 260 252 225 217 223 227 229 233 235 240 250 255 254 256 255 250 249 248 242 235 228 224 217 210 203 190 186 194
216 224 229 213 199 186 191 204 210 203 200 202 206 214 218 221 226 224 215 207 196 187 172 154 156 193 186 183 186 208 222 230 240 247 255 259 258 252 239 230 228 211 193 195 208 217 219 226 237 237 232 224 229 231 200 158 185 212 236 241 226 223 226 227 226 225 228 236 247 249 246 247 248 245 245 241 230 226 229 229 220 210 197 183 188 196
219 222 227 226 234 209 169 194 216 215 214 210 208 215 222 225 221 207 208 208 203 205 177 155 156 176 179 185 190 204 223 234 243 254 261 269 275 264 234 248 257 217 199 208 219 219 218 222 229 235 235 228 229 230 208 186 187 197 223 232 226 225 225 222 221 222 226 234 242 244 244 247 247 243 240 234 224 221 227 229 219 203 189 184 192 195
217 222 230 234 242 230 165 199 227 220 214 209 209 220 226 229 222 208 204 202 189 188 166 137 114 145 169 188 197 207 220 224 237 251 258 274 285 274 235 231 238 214 219 232 239 234 228 232 240 245 245 242 244 245 231 220 218 209 213 225 226 232 236 233 230 232 235 238 241 241 243 248 249 244 236 226 223 223 224 228 217 193 182 188 192 191
209 210 222 231 239 234 215 217 226 225 215 203 204 220 227 233 228 217 221 214 187 172 156 128 102 146 167 195 207 209 214 212 224 240 247 266 274 269 254 239 236 240 246 247 244 242 242 244 246 251 253 253 256 259 254 248 247 240 236 236 233 236 243 244 241 241 241 241 241 238 239 245 245 241 234 224 221 223 224 227 215 186 178 187 188 187
195 192 205 219 233 235 228 214 199 189 192 181 174 196 214 220 227 226 226 212 186 173 174 154 132 153 169 199 211 215 217 211 220 234 241 252 253 254 248 240 247 257 249 240 235 237 243 245 247 251 255 258 261 264 263 259 254 247 241 240 239 240 245 247 247 246 241 240 239 235 234 237 234 232 232 229 225 221 224 224 205 180 177 185 185 186
170 166 188 201 199 211 211 181 147 129 141 149 145 151 176 192 205 217 209 194 172 170 183 165 139 149 168 198 209 217 221 216 223 229 230 239 247 255 251 250 262 258 222 217 219 224 229 229 239 250 257 264 267 267 268 267 262 255 248 244 243 245 248 250 251 246 241 240 238 233 230 229 226 225 228 231 226 220 225 221 194 174 178 182 185 188
160 147 163 200 197 180 153 137 142 153 153 146 140 138 140 166 179 172 180 179 156 145 150 154 155 156 170 196 206 213 216 215 222 223 221 233 244 255 258 264 269 214 188 195 206 212 214 214 224 241 254 267 272 272 273 274 274 272 268 261 254 249 248 249 249 243 238 239 235 232 229 224 222 224 225 227 223 220 228 217 187 175 182 183 186 192
174 147 123 118 128 128 124 125 142 176 172 145 122 124 128 146 150 136 154 169 159 149 135 150 166 166 175 197 210 218 218 216 220 223 229 240 246 252 261 272 257 199 188 192 205 215 221 224 230 242 258 272 276 278 278 280 284 285 284 283 277 266 254 248 247 243 239 237 233 233 232 224 220 220 220 221 219 222 228 213 186 181 187 186 192 197
173 146 128 125 114 109 124 135 157 194 179 155 112 75 85 122 135 117 144 166 173 191 176 162 168 176 187 202 213 219 221 221 222 225 233 246 250 252 262 271 238 207 199 194 203 228 245 254 269 277 284 293 291 288 288 289 292 292 293 295 293 284 268 253 246 244 242 240 237 236 235 228 222 218 216 217 216 220 221 204 184 184 189 191 200 201
167 143 133 136 130 126 151 188 215 215 187 179 186 114 85 99 118 118 150 173 179 190 181 170 173 183 194 211 223 226 226 223 221 229 240 254 265 263 263 257 228 217 218 205 201 236 254 270 295 298 295 301 302 300 300 300 301 302 302 304 303 297 283 263 251 246 243 242 242 239 235 230 225 220 217 215 213 214 211 195 185 188 190 196 205 202
182 155 144 144 139 134 155 189 196 200 184 167 165 168 138 118 134 140 159 182 181 174 177 180 183 188 194 210 226 232 233 225 222 237 246 250 264 268 260 246 235 236 237 223 205 229 251 274 291 289 291 302 307 311 314 314 313 311 309 313 314 311 299 279 266 255 243 238 241 238 231 227 225 223 220 213 209 207 199 189 188 190 193 201 207 203
208 182 170 164 147 137 150 164 160 169 186 152 132 141 150 149 162 170 178 192 194 185 183 187 193 199 201 202 208 217 222 218 219 234 246 244 240 246 244 235 250 258 255 255 245 231 245 267 277 282 291 306 318 325 329 335 336 329 325 323 317 320 336 322 286 263 242 229 232 232 228 227 226 219 212 205 202 199 192 187 189 193 198 206 208 203
195 195 194 193 181 164 163 169 166 166 169 136 120 145 163 169 181 184 184 192 196 194 193 196 201 204 203 202 205 208 204 210 223 231 242 244 221 224 234 222 236 257 260 267 262 235 253 268 276 288 298 314 331 336 340 355 4 357 346 338 326 326 344 343 315 283 256 226 222 225 223 225 223 213 206 203 199 195 191 189 192 197 203 209 208 204
163 170 179 192 196 195 193 184 178 176 161 151 170 197 194 189 189 183 179 181 183 190 201 209 208 205 206 210 218 226 223 227 237 231 217 211 204 220 236 220 218 238 247 250 248 253 271 269 269 281 292 308 323 332 342 2 17 10 357 350 345 344 347 346 337 320 297 244 220 219 214 212 212 206 203 202 198 193 189 189 194 200 204 208 208 207
163 161 155 165 182 184 176 171 172 192 171 166 175 200 203 199 197 189 181 178 176 182 199 209 206 204 211 218 226 235 230 226 237 230 205 203 205 208 220 223 219 221 234 249 256 268 273 263 276 297 299 305 317 343 8 18 23 14 5 356 346 348 2 9 4 326 307 272 213 210 208 202 204 203 201 202 201 196 191 191 194 200 203 205 208 210
173 171 172 171 170 168 166 163 161 162 167 168 168 172 180 189 195 194 186 182 182 186 195 202 205 209 214 218 220 218 209 207 216 218 202 195 197 208 223 230 220 214 232 244 246 263 282 291 337 337 331 335 345 3 15 16 18 16 13 6 351 352 9 11 348 316 315 292 215 214 215 208 208 206 200 205 209 204 200 199 198 202 205 204 206 212
192 185 187 182 172 170 161 137 125 144 160 170 170 169 175 182 188 194 193 191 195 199 204 210 219 223 221 223 218 203 197 201 204 206 208 205 211 225 221 212 209 216 232 231 221 245 279 294 322 341 358 6 3 3 5 4 9 18 20 14 3 6 26 2 274 298 324 313 212 207 208 207 213 212 200 204 212 213 209 206 201 202 207 208 209 215
207 201 199 195 190 181 161 129 118 148 177 184 183 183 185 186 193 202 204 206 209 212 214 217 226 233 230 230 218 198 196 203 203 205 216 225 239 235 199 190 203 211 224 232 224 228 252 277 301 325 355 3 354 353 355 356 5 18 21 17 12 22 46 21 328 314 305 293 240 204 203 205 211 213 205 204 210 212 210 206 202 201 204 206 209 216
218 217 212 208 203 186 171 152 142 189 197 193 191 191 191 194 204 209 210 220 222 222 223 221 225 235 232 220 207 200 200 203 205 213 226 229 231 215 196 201 203 201 219 241 236 221 227 267 299 316 339 351 350 349 350 355 8 21 21 11 4 10 21 348 333 331 282 272 246 204 205 210 210 212 211 208 212 216 210 203 199 197 199 201 204 210
219 221 219 216 207 188 179 164 152 182 198 197 194 192 191 195 202 199 195 217 218 217 223 220 219 227 220 201 196 203 207 203 203 218 232 225 221 212 203 210 209 208 224 236 232 227 240 275 296 307 325 344 352 343 342 353 10 21 20 5 352 348 340 326 329 346 331 272 222 198 199 204 206 210 209 203 203 205 198 193 192 194 198 201 201 205
205 207 211 209 198 190 186 171 153 188 204 195 190 191 188 187 191 194 197 213 215 210 207 200 200 206 202 195 196 201 206 206 206 224 230 218 218 218 209 209 215 221 228 227 220 225 240 265 280 295 318 332 334 327 328 338 359 11 9 356 343 329 322 338 8 4 5 2 218 206 198 189 184 190 192 187 189 193 193 195 201 205 208 210 211 215
179 178 182 184 180 184 185 171 150 178 200 190 184 186 184 183 191 203 206 211 212 207 198 185 182 190 196 203 210 211 214 216 217 232 238 228 226 226 220 217 220 226 234 237 242 255 261 265 274 295 319 310 310 319 318 323 342 356 353 346 341 327 312 306 257 251 210 129 160 200 197 188 178 183 190 196 203 206 206 208 208 204 205 211 216 222
174 164 158 162 166 165 163 156 148 181 189 180 173 175 182 189 197 200 202 204 198 193 192 185 185 197 204 213 222 225 230 232 225 225 229 229 231 232 229 226 225 225 228 233 245 261 266 268 271 273 276 279 292 310 312 315 331 341 339 340 339 321 297 273 228 193 158 133 136 150 168 177 177 182 194 203 211 211 208 205 198 188 192 203 210 214
178 169 162 164 165 159 153 152 165 176 171 168 168 175 183 186 180 173 174 177 170 163 161 167 175 184 189 201 218 218 217 222 220 214 212 214 221 226 226 224 223 223 222 225 237 250 253 253 250 241 243 262 276 288 294 301 320 331 328 329 327 311 289 273 238 192 165 146 138 136 141 151 158 164 175 182 188 193 193 192 193 195 199 202 203 209
177 179 179 175 170 165 157 150 151 156 161 166 169 168 164 154 143 138 134 130 132 132 131 140 150 154 155 167 229 230 210 206 201 192 190 194 205 216 220 219 220 225 232 237 240 239 233 224 218 216 228 251 264 272 280 286 295 305 304 303 303 295 279 267 246 209 182 163 152 149 150 154 161 168 174 178 183 192 196 196 199 206 210 208 205 207
156 167 179 175 164 154 142 133 134 138 146 155 156 149 142 134 126 124 123 118 115 114 113 116 122 129 132 125 115 111 146 154 141 133 138 158 173 197 215 218 217 223 234 241 238 232 225 220 217 219 231 244 252 259 269 273 268 263 265 270 272 268 256 242 226 206 186 170 163 161 162 166 170 170 173 177 179 181 187 190 191 195 199 199 196 189
136 149 164 163 156 148 135 129 133 137 138 142 145 141 137 133 125 123 126 123 118 117 117 117 119 115 102 101 106 102 96 110 114 106 104 113 125 147 191 219 230 229 230 236 234 229 227 227 227 231 240 246 248 249 253 259 259 252 249 254 257 252 241 223 205 197 193 186 180 176 175 179 181 177 177 182 183 179 179 179 176 174 176 179 180 174
132 145 156 154 149 146 140 137 140 140 137 138 141 137 136 136 132 129 130 130 130 130 126 123 121 113 100 96 97 91 81 88 96 91 85 80 70 52 13 310 289 281 269 259 253 243 234 232 231 233 238 245 249 247 243 243 246 247 245 247 249 246 238 227 212 204 199 192 186 183 182 184 185 182 183 190 192 190 188 186 183 181 180 183 189 191
137 145 153 152 144 141 141 143 146 145 141 141 143 142 139 141 142 142 139 136 134 131 129 128 126 122 116 110 105 96 84 73 60 51 41 27 11 355 339 327 323 315 296 283 280 271 253 243 237 235 238 244 248 248 243 238 237 238 239 240 238 235 232 230 226 224 218 207 195 187 183 182 184 187 190 194 196 196 196 196 195 194 194 196 200 205
141 147 152 152 144 139 141 147 152 152 147 146 151 151 146 146 151 150 145 140 132 123 119 118 116 113 110 108 105 101 98 100 89 339 331 336 339 338 331 322 314 305 299 296 295 287 272 258 246 237 235 237 240 243 246 245 241 239 239 239 236 233 232 234 235 236 237 234 226 212 196 188 187 189 192 194 194 196 199 202 206 211 216 220 223 224
138 143 145 145 138 134 135 142 153 157 150 146 147 144 136 135 139 137 130 125 118 108 99 92 88 86 85 86 88 87 81 78 66 301 296 306 314 313 312 312 310 310 312 310 301 292 283 273 262 250 237 231 231 234 242 246 245 244 242 241 239 236 235 236 237 233 229 226 225 224 218 206 197 193 194 196 198 200 203 207 211 217 224 231 236 239
Height
3095 3096 3095 3096 3098 3101 3103 3105 3107 3109 3110 3111 3112 3113 3113 3113 3113 3113 3113 3112 3112 3112 3113 3115 3115 3117 3119 3120 3120 3120 3119 3119 3120 3121 3123 3126 3127 3129 3130 3131 3131 3132 3132 3132 3131 3130 3130 3131 3133 3133 3134 3134 3134 3134 3134 3134 3134 3135 3135 3134 3133 3134 3134 3133 3133 3135 3136 3136 3138 3139 3140 3141 3142 3143 3145 3146 3147 3147 3148 3148 3148 3148 3148 3149 3149 3149
3094 3093 3093 3095 3099 3102 3103 3105 3107 3108 3109 3110 3111 3111 3111 3112 3111 3111 3111 3109 3109 3110 3112 3115 3116 3117 3118 3118 3120 3120 3120 3119 3120 3122 3124 3125 3127 3128 3129 3130 3130 3130 3130 3131 3130 3130 3130 3131 3131 3131 3131 3131 3132 3132 3132 3133 3133 3134 3133 3133 3133 3133 3133 3133 3133 3133 3134 3135 3136 3138 3139 3140 3141 3142 3144 3145 3146 3146 3147 3147 3147 3147 3148 3148 3148 3149
3091 3090 3092 3096 3099 3101 3103 3105 3106 3107 3108 3109 3111 3111 3109 3110 3110 3110 3109 3108 3109 3112 3112 3114 3116 3116 3117 3118 3119 3119 3120 3120 3120 3121 3123 3124 3125 3126 3127 3128 3128 3129 3129 3129 3129 3129 3129 3130 3130 3129 3129 3129 3130 3130 3131 3132 3133 3133 3133 3132 3132 3132 3132 3132 3132 3133 3133 3134 3136 3137 3138 3139 3140 3142 3143 3144 3145 3145 3145 3145 3145 3146 3146 3147 3148 3148
3089 3089 3092 3096 3098 3099 3101 3103 3105 3106 3107 3108 3110 3110 3107 3109 3110 3109 3108 3108 3109 3111 3112 3113 3115 3116 3116 3117 3117 3118 3119 3119 3120 3120 3120 3122 3122 3123 3125 3126 3127 3127 3128 3128 3128 3128 3129 3129 3128 3128 3128 3128 3129 3130 3131 3132 3132 3132 3132 3132 3132 3132 3132 3132 3133 3133 3134 3134 3135 3135 3137 3138 3139 3141 3142 3142 3143 3143 3143 3144 3144 3144 3145 3146 3147 3147
3087 3089 3093 3095 3096 3098 3099 3101 3103 3105 3106 3107 3109 3109 3107 3108 3109 3109 3109 3108 3109 3110 3111 3113 3114 3115 3115 3115 3116 3116 3117 3118 3118 3117 3117 3119 3120 3121 3123 3124 3126 3127 3127 3127 3126 3127 3127 3127 3127 3128 3128 3129 3131 3132 3132 3131 3131 3132 3132 3132 3132 3132 3132 3133 3133 3133 3133 3134 3134 3134 3135 3136 3137 3139 3140 3141 3141 3141 3142 3142 3142 3142 3143 3144 3146 3147
3087 3089 3092 3093 3095 3096 3098 3099 3101 3103 3104 3105 3106 3107 3107 3107 3107 3108 3109 3110 3110 3110 3111 3112 3114 3114 3115 3115 3115 3116 3116 3116 3116 3115 3115 3117 3118 3120 3121 3123 3125 3125 3125 3125 3125 3125 3126 3126 3127 3128 3129 3130 3132 3132 3132 3131 3130 3130 3131 3132 3132 3132 3132 3132 3133 3133 3133 3133 3133 3133 3134 3135 3135 3137 3138 3139 3139 3140 3140 3140 3140 3141 3142 3143 3145 3146
3086 3088 3090 3091 3093 3095 3097 3097 3099 3101 3103 3103 3104 3105 3106 3106 3106 3106 3108 3110 3110 3111 3111 3112 3114 3114 3115 3115 3116 3115 3116 3115 3115 3115 3115 3116 3116 3117 3120 3122 3123 3123 3123 3123 3123 3124 3125 3125 3126 3127 3129 3130 3132 3133 3131 3129 3128 3129 3130 3131 3131 3132 3132 3132 3132 3132 3132 3132 3133 3133 3133 3133 3134 3135 3136 3137 3137 3137 3138 3138 3138 3139 3140 3142 3143 3144
3084 3087 3089 3090 3092 3094 3095 3095 3097 3099 3100 3101 3103 3104 3105 3105 3105 3106 3107 3108 3109 3110 3110 3111 3113 3114 3115 3115 3115 3114 3114 3114 3115 3116 3115 3114 3113 3114 3116 3118 3119 3120 3121 3122 3122 3122 3123 3124 3124 3126 3128 3130 3132 3132 3129 3127 3127 3129 3130 3131 3131 3132 3132 3132 3131 3131 3132 3132 3132 3132 3132 3132 3132 3133 3134 3135 3135 3135 3136 3136 3137 3138 3139 3140 3142 3143
3083 3086 3087 3089 3091 3092 3093 3094 3095 3098 3099 3100 3102 3103 3103 3104 3105 3105 3105 3107 3108 3109 3110 3111 3112 3113 3114 3114 3114 3113 3112 3114 3115 3115 3114 3112 3111 3111 3113 3114 3116 3118 3120 3120 3121 3121 3122 3122 3123 3124 3126 3128 3130 3129 3126 3126 3126 3127 3128 3128 3130 3131 3132 3131 3130 3131 3131 3131 3131 3131 3131 3131 3131 3132 3132 3133 3133 3133 3133 3135 3136 3137 3137 3139 3140 3142
3083 3085 3087 3089 3089 3090 3091 3092 3094 3096 3097 3098 3101 3102 3102 3102 3103 3103 3104 3106 3107 3108 3109 3110 3111 3112 3113 3114 3113 3112 3112 3113 3114 3113 3112 3112 3111 3111 3111 3112 3114 3116 3117 3119 3119 3121 3121 3122 3122 3123 3124 3125 3126 3126 3126 3127 3126 3126 3125 3124 3125 3128 3129 3130 3129 3129 3130 3130 3129 3129 3129 3129 3129 3130 3130 3131 3131 3131 3131 3133 3134 3135 3136 3137 3139 3141
3081 3083 3085 3087 3087 3088 3090 3091 3092 3094 3096 3098 3099 3100 3101 3101 3102 3102 3103 3104 3105 3106 3107 3108 3109 3110 3113 3115 3113 3112 3112 3113 3113 3112 3112 3112 3112 3112 3111 3112 3114 3115 3116 3117 3119 3120 3120 3121 3121 3122 3122 3123 3124 3125 3126 3126 3124 3124 3125 3124 3123 3123 3124 3126 3127 3128 3128 3128 3128 3128 3127 3127 3127 3127 3127 3128 3129 3130 3130 3130 3131 3133 3134 3135 3138 3139
3079 3081 3082 3084 3085 3087 3089 3090 3091 3093 3095 3096 3097 3099 3100 3100 3101 3101 3102 3102 3104 3105 3105 3106 3107 3107 3111 3115 3114 3111 3112 3112 3113 3113 3112 3112 3112 3112 3112 3113 3114 3115 3116 3117 3118 3119 3119 3120 3120 3121 3121 3122 3123 3124 3124 3123 3121 3121 3122 3123 3123 3122 3122 3124 3126 3126 3127 3127 3126 3126 3126 3125 3124 3125 3125 3125 3126 3127 3128 3128 3129 3130 3132 3134 3136 3138
3077 3078 3080 3082 3084 3085 3087 3088 3089 3091 3092 3094 3095 3097 3099 3099 3100 3101 3102 3103 3103 3103 3103 3104 3105 3107 3111 3114 3113 3111 3110 3111 3112 3113 3113 3113 3113 3112 3112 3113 3114 3115 3116 3117 3118 3118 3119 3119 3119 3120 3120 3120 3120 3120 3120 3119 3119 3119 3120 3121 3123 3124 3123 3122 3123 3124 3125 3125 3124 3124 3124 3123 3122 3122 3122 3122 3123 3124 3126 3127 3128 3129 3131 3133 3135 3136
3076 3077 3078 3080 3081 3083 3084 3085 3086 3088 3090 3092 3093 3095 3097 3099 3101 3103 3104 3104 3104 3102 3102 3104 3106 3109 3112 3113 3112 3110 3109 3109 3110 3112 3112 3112 3112 3112 3112 3112 3113 3114 3115 3116 3116 3117 3117 3117 3117 3117 3117 3117 3117 3116 3116 3116 3116 3116 3117 3118 3120 3122 3121 3120 3121 3122 3122 3123 3123 3122 3121 3121 3120 3120 3120 3120 3120 3122 3123 3125 3127 3128 3130 3133 3135 3136
3076 3076 3076 3078 3079 3081 3082 3084 3085 3087 3088 3090 3092 3094 3095 3096 3099 3102 3103 3104 3104 3103 3103 3104 3106 3108 3110 3111 3111 3109 3108 3108 3109 3110 3111 3111 3111 3111 3111 3111 3112 3113 3113 3114 3114 3114 3114 3114 3114 3114 3114 3113 3113 3113 3112 3112 3112 3113 3113 3113 3115 3117 3118 3118 3119 3119 3120 3121 3121 3119 3118 3118 3119 3119 3119 3119 3119 3120 3122 3124 3126 3128 3129 3132 3134 3136
3075 3074 3075 3077 3079 3080 3081 3082 3084 3086 3088 3089 3091 3093 3094 3095 3097 3100 3101 3102 3103 3103 3103 3104 3106 3108 3109 3110 3110 3109 3108 3109 3109 3109 3110 3110 3110 3110 3110 3110 3110 3111 3112 3112 3112 3112 3112 3112 3111 3111 3110 3110 3109 3109 3109 3108 3108 3108 3108 3108 3110 3113 3114 3115 3115 3115 3116 3116 3116 3114 3114 3115 3118 3120 3119 3118 3118 3118 3119 3122 3125 3126 3127 3129 3133 3135
3073 3074 3074 3076 3077 3079 3080 3081 3083 3085 3086 3088 3089 3091 3093 3095 3096 3098 3100 3101 3103 3104 3103 3104 3106 3108 3108 3109 3109 3108 3109 3109 3109 3109 3110 3110 3110 3109 3109 3109 3109 3110 3110 3110 3110 3110 3110 3109 3109 3108 3107 3107 3107 3107 3107 3106 3104 3102 3103 3104 3107 3108 3109 3108 3108 3108 3109 3110 3111 3112 3112 3115 3119 3121 3120 3119 3117 3117 3119 3121 3124 3126 3126 3127 3130 3134
3072 3073 3073 3074 3075 3077 3079 3081 3082 3084 3085 3086 3088 3090 3092 3094 3095 3097 3099 3101 3104 3105 3103 3102 3104 3105 3106 3107 3107 3108 3108 3109 3109 3109 3109 3110 3109 3108 3108 3108 3108 3109 3108 3108 3108 3108 3108 3107 3107 3106 3105 3105 3105 3105 3105 3103 3101 3100 3101 3102 3103 3104 3104 3102 3102 3102 3104 3107 3110 3112 3114 3116 3118 3120 3120 3119 3118 3119 3121 3123 3123 3126 3127 3126 3128 3132
3072 3072 3072 3073 3074 3075 3077 3080 3080 3082 3084 3086 3087 3089 3090 3092 3094 3095 3097 3099 3102 3103 3102 3101 3102 3103 3104 3104 3105 3106 3106 3107 3107 3108 3108 3108 3107 3107 3107 3107 3107 3108 3107 3107 3107 3107 3106 3105 3105 3104 3104 3104 3104 3104 3102 3100 3099 3099 3100 3100 3100 3101 3101 3100 3100 3101 3104 3107 3109 3111 3114 3115 3116 3118 3118 3118 3118 3119 3121 3122 3122 3124 3126 3126 3127 3130
3071 3071 3071 3072 3073 3073 3075 3077 3078 3080 3083 3084 3086 3088 3089 3090 3092 3093 3094 3095 3097 3099 3100 3101 3103 3103 3103 3103 3103 3104 3104 3105 3105 3106 3106 3106 3106 3106 3106 3107 3107 3107 3107 3107 3107 3107 3106 3105 3104 3103 3103 3103 3102 3102 3101 3099 3098 3098 3099 3099 3099 3100 3102 3102 3102 3102 3104 3107 3108 3110 3112 3113 3114 3115 3115 3116 3117 3118 3120 3121 3122 3124 3124 3124 3126 3130
3070 3070 3070 3071 3072 3073 3074 3075 3077 3079 3081 3082 3084 3085 3087 3089 3090 3090 3091 3091 3092 3095 3096 3099 3102 3102 3101 3102 3103 3103 3103 3103 3104 3104 3104 3104 3105 3105 3106 3107 3108 3108 3107 3107 3107 3107 3106 3105 3104 3104 3103 3103 3102 3102 3100 3098 3097 3097 3098 3098 3099 3101 3103 3103 3103 3103 3104 3106 3106 3108 3110 3111 3112 3112 3113 3114 3114 3115 3117 3119 3121 3123 3122 3122 3126 3129
3067 3068 3069 3070 3070 3072 3074 3075 3076 3078 3079 3080 3082 3083 3084 3086 3087 3088 3088 3089 3090 3091 3092 3094 3098 3100 3101 3101 3102 3102 3102 3102 3102 3103 3103 3103 3104 3105 3106 3106 3107 3108 3107 3107 3106 3106 3105 3104 3103 3103 3102 3102 3102 3101 3100 3098 3097 3096 3097 3098 3100 3101 3102 3103 3103 3103 3104 3105 3105 3106 3108 3109 3109 3109 3111 3112 3111 3112 3115 3117 3119 3120 3120 3121 3126 3128
3065 3067 3069 3069 3069 3072 3074 3073 3074 3076 3077 3078 3079 3080 3081 3082 3083 3084 3086 3087 3088 3089 3090 3091 3095 3099 3101 3101 3101 3101 3101 3101 3101 3102 3102 3102 3102 3104 3105 3106 3106 3107 3107 3106 3106 3105 3104 3104 3102 3102 3101 3100 3100 3100 3100 3099 3098 3097 3097 3098 3100 3101 3101 3100 3101 3101 3102 3103 3104 3105 3106 3106 3106 3107 3108 3108 3108 3111 3113 3115 3116 3117 3118 3121 3125 3127
3065 3066 3067 3068 3069 3071 3072 3072 3073 3074 3075 3076 3077 3077 3079 3080 3080 3082 3084 3085 3086 3087 3088 3089 3094 3099 3100 3100 3100 3100 3100 3100 3100 3101 3101 3101 3101 3102 3104 3104 3105 3105 3105 3104 3104 3104 3103 3102 3101 3100 3100 3099 3099 3099 3099 3099 3098 3098 3097 3098 3099 3099 3099 3098 3099 3099 3101 3102 3103 3103 3104 3104 3103 3104 3106 3106 3107 3109 3111 3113 3115 3116 3118 3121 3124 3126
3064 3065 3066 3067 3068 3069 3070 3070 3071 3072 3073 3075 3075 3076 3077 3078 3079 3080 3082 3083 3084 3085 3086 3088 3092 3097 3098 3098 3098 3098 3099 3100 3100 3100 3101 3101 3101 3102 3102 3102 3102 3103 3103 3103 3102 3102 3102 3101 3101 3100 3099 3099 3098 3098 3097 3097 3097 3098 3098 3098 3098 3098 3098 3099 3100 3102 3102 3102 3101 3101 3102 3101 3100 3101 3103 3105 3106 3108 3110 3112 3114 3115 3118 3121 3123 3125
3063 3064 3065 3065 3066 3067 3067 3068 3070 3071 3072 3074 3075 3076 3077 3077 3078 3079 3080 3081 3082 3084 3085 3086 3090 3094 3096 3096 3097 3097 3098 3098 3098 3099 3100 3100 3101 3101 3101 3100 3101 3102 3102 3101 3101 3102 3102 3101 3101 3100 3099 3098 3097 3097 3096 3095 3095 3096 3096 3096 3096 3097 3098 3098 3100 3101 3101 3099 3099 3098 3099 3099 3098 3099 3101 3103 3105 3107 3109 3111 3113 3114 3117 3120 3123 3124
3062 3063 3064 3064 3065 3065 3066 3067 3069 3071 3072 3073 3075 3076 3077 3077 3077 3078 3080 3080 3081 3082 3084 3085 3087 3091 3094 3095 3095 3096 3096 3096 3097 3098 3099 3099 3099 3099 3099 3099 3099 3100 3100 3100 3101 3101 3101 3101 3101 3100 3099 3097 3097 3096 3095 3094 3093 3093 3093 3094 3094 3095 3096 3095 3095 3096 3095 3095 3095 3095 3095 3097 3097 3097 3099 3100 3103 3105 3107 3110 3111 3113 3116 3119 3122 3124
3062 3063 3064 3065 3065 3066 3066 3067 3069 3070 3071 3072 3074 3075 3076 3076 3077 3078 3079 3081 3081 3082 3083 3085 3086 3088 3091 3093 3093 3094 3094 3095 3096 3098 3098 3098 3098 3098 3097 3097 3098 3099 3099 3099 3099 3099 3100 3100 3100 3099 3098 3097 3096 3095 3094 3093 3092 3091 3091 3091 3091 3092 3092 3091 3091 3091 3090 3090 3090 3091 3093 3095 3095 3095 3096 3098 3100 3102 3104 3107 3109 3111 3115 3118 3121 3122
3061 3063 3064 3065 3066 3066 3067 3068 3069 3070 3070 3071 3073 3075 3076 3076 3076 3077 3079 3080 3081 3082 3082 3084 3085 3086 3088 3090 3091 3092 3093 3094 3096 3097 3097 3097 3097 3096 3096 3096 3097 3097 3097 3098 3098 3098 3097 3097 3098 3098 3097 3096 3095 3094 3093 3092 3091 3090 3089 3088 3088 3088 3087 3087 3087 3087 3087 3086 3086 3089 3091 3091 3091 3093 3093 3095 3098 3100 3102 3105 3107 3110 3113 3116 3119 3120
3060 3062 3064 3065 3066 3067 3068 3068 3069 3069 3069 3070 3072 3074 3075 3076 3076 3077 3079 3080 3081 3082 3082 3082 3083 3085 3086 3088 3090 3091 3092 3093 3095 3095 3095 3096 3095 3095 3095 3095 3096 3096 3096 3096 3097 3096 3096 3096 3096 3096 3096 3095 3094 3093 3092 3091 3090 3089 3088 3087 3085 3084 3083 3083 3083 3083 3084 3084 3084 3086 3087 3087 3088 3090 3092 3093 3096 3098 3101 3104 3105 3108 3112 3114 3116 3119
3060 3062 3064 3064 3065 3067 3069 3069 3069 3070 3069 3070 3071 3073 3074 3075 3076 3077 3079 3080 3081 3081 3081 3082 3082 3083 3085 3087 3089 3090 3091 3092 3094 3094 3094 3095 3095 3094 3094 3094 3095 3094 3094 3095 3095 3095 3095 3095 3095 3094 3094 3094 3093 3092 3091 3089 3088 3087 3086 3085 3084 3082 3081 3081 3081 3081 3081 3081 3081 3082 3083 3084 3085 3087 3089 3092 3095 3097 3100 3102 3104 3106 3110 3112 3115 3118
3059 3061 3063 3064 3065 3067 3069 3069 3070 3070 3070 3069 3071 3072 3073 3074 3076 3077 3078 3079 3080 3080 3081 3081 3081 3082 3083 3085 3086 3088 3090 3092 3093 3093 3094 3094 3094 3094 3094 3094 3094 3094 3093 3094 3094 3094 3094 3094 3093 3093 3093 3092 3092 3091 3090 3088 3087 3086 3085 3084 3083 3082 3081 3080 3080 3079 3079 3079 3079 3079 3080 3082 3083 3085 3087 3090 3093 3096 3098 3100 3102 3105 3108 3111 3113 3117
3058 3059 3061 3062 3064 3067 3068 3069 3070 3070 3070 3070 3071 3072 3072 3074 3075 3076 3077 3078 3078 3079 3079 3080 3080 3081 3082 3083 3085 3086 3089 3091 3092 3092 3093 3093 3094 3094 3094 3094 3094 3093 3093 3093 3094 3094 3093 3093 3093 3092 3092 3091 3091 3090 3089 3088 3086 3085 3084 3083 3083 3082 3081 3080 3079 3078 3078 3078 3077 3078 3079 3080 3081 3083 3086 3088 3091 3095 3096 3098 3101 3104 3107 3109 3112 3115
3057 3058 3059 3061 3063 3065 3067 3068 3070 3070 3070 3071 3071 3072 3072 3074 3074 3075 3076 3077 3077 3078 3079 3080 3080 3081 3082 3084 3085 3086 3088 3089 3090 3091 3092 3093 3093 3093 3093 3094 3093 3093 3093 3093 3093 3094 3093 3093 3093 3092 3091 3091 3090 3089 3089 3088 3086 3085 3084 3083 3082 3081 3081 3080 3078 3078 3078 3077 3076 3077 3078 3079 3080 3082 3084 3087 3090 3093 3095 3097 3100 3103 3106 3109 3112 3114
3057 3058 3059 3061 3062 3064 3066 3068 3070 3070 3070 3070 3071 3072 3073 3074 3075 3075 3076 3076 3077 3077 3078 3079 3080 3081 3082 3083 3084 3085 3087 3088 3089 3090 3091 3092 3092 3092 3092 3092 3093 3092 3093 3093 3093 3094 3093 3093 3093 3092 3091 3090 3089 3089 3089 3088 3087 3086 3085 3083 3082 3081 3081 3080 3079 3079 3078 3077 3077 3077 3077 3079 3080 3081 3083 3086 3089 3092 3094 3096 3099 3102 3105 3108 3110 3112
3057 3058 3059 3060 3061 3063 3065 3066 3068 3069 3069 3070 3071 3072 3073 3074 3074 3075 3076 3076 3077 3077 3077 3078 3079 3080 3081 3082 3083 3084 3086 3087 3088 3089 3090 3090 3091 3091 3091 3091 3092 3092 3092 3093 3093 3093 3093 3093 3092 3092 3091 3090 3089 3089 3089 3088 3087 3086 3085 3084 3083 3081 3081 3080 3080 3080 3079 3078 3078 3078 3078 3079 3080 3081 3083 3085 3087 3090 3094 3096 3099 3102 3104 3106 3108 3110
3056 3057 3058 3059 3061 3062 3063 3065 3067 3069 3069 3070 3071 3072 3072 3072 3073 3074 3075 3076 3077 3077 3077 3078 3078 3079 3080 3081 3082 3083 3085 3086 3087 3088 3088 3089 3090 3090 3091 3091 3091 3092 3092 3092 3093 3093 3093 3093 3092 3092 3091 3090 3090 3089 3089 3088 3087 3086 3085 3084 3083 3082 3081 3081 3080 3080 3079 3078 3078 3078 3078 3079 3080 3082 3083 3085 3087 3090 3092 3095 3097 3100 3103 3105 3106 3108
3055 3056 3057 3058 3059 3060 3062 3065 3068 3069 3069 3069 3069 3070 3071 3072 3072 3073 3074 3075 3076 3076 3077 3078 3078 3079 3079 3080 3081 3083 3084 3085 3086 3087 3087 3089 3089 3090 3090 3091 3091 3091 3091 3092 3092 3092 3092 3092 3092 3092 3091 3090 3090 3090 3089 3089 3087 3086 3085 3084 3083 3083 3082 3081 3081 3080 3080 3079 3078 3079 3079 3080 3081 3082 3083 3085 3087 3089 3091 3093 3096 3099 3101 3103 3105 3107
3054 3055 3056 3057 3058 3059 3060 3062 3065 3066 3066 3067 3068 3069 3070 3071 3072 3073 3074 3074 3074 3075 3076 3077 3078 3078 3079 3079 3080 3082 3083 3084 3085 3086 3087 3088 3089 3089 3090 3090 3090 3091 3091 3091 3091 3091 3091 3091 3091 3091 3091 3090 3090 3090 3090 3089 3088 3086 3085 3084 3084 3083 3082 3082 3081 3081 3081 3080 3079 3079 3079 3080 3082 3083 3083 3085 3087 3088 3091 3093 3096 3098 3100 3101 3103 3105
3053 3054 3055 3056 3057 3058 3059 3060 3062 3063 3064 3065 3067 3068 3070 3071 3072 3073 3073 3072 3072 3073 3075 3076 3077 3078 3078 3079 3080 3081 3082 3083 3084 3085 3086 3087 3088 3088 3089 3089 3089 3090 3090 3090 3090 3091 3091 3090 3089 3089 3090 3090 3090 3090 3089 3089 3088 3086 3085 3085 3084 3083 3083 3082 3081 3081 3081 3080 3080 3080 3080 3081 3082 3083 3084 3085 3087 3088 3090 3092 3094 3096 3098 3099 3100 3102
3051 3052 3053 3054 3055 3056 3057 3058 3060 3061 3062 3064 3066 3068 3069 3071 3072 3072 3071 3071 3072 3073 3074 3075 3076 3077 3078 3079 3079 3080 3081 3082 3083 3084 3085 3086 3086 3087 3087 3088 3088 3089 3089 3089 3089 3090 3090 3089 3088 3088 3088 3089 3089 3089 3089 3088 3087 3086 3085 3085 3084 3084 3082 3082 3081 3081 3080 3080 3080 3080 3080 3082 3083 3084 3084 3086 3088 3088 3089 3091 3093 3094 3096 3097 3099 3100
3050 3051 3052 3053 3054 3055 3056 3058 3060 3061 3061 3063 3065 3067 3068 3070 3070 3070 3071 3071 3072 3073 3074 3075 3076 3077 3077 3078 3079 3080 3081 3081 3082 3084 3084 3085 3085 3086 3086 3087 3087 3088 3088 3088 3088 3088 3088 3088 3088 3087 3088 3088 3088 3088 3088 3087 3087 3086 3085 3085 3084 3084 3083 3082 3082 3081 3081 3080 3080 3080 3081 3082 3084 3085 3085 3087 3088 3089 3089 3091 3092 3093 3094 3096 3098 3099
3048 3049 3051 3052 3053 3054 3056 3057 3059 3060 3061 3062 3064 3066 3068 3069 3070 3070 3071 3072 3072 3072 3074 3075 3076 3077 3077 3077 3078 3079 3080 3081 3082 3083 3083 3084 3084 3084 3085 3085 3086 3086 3086 3086 3086 3086 3087 3087 3087 3087 3087 3087 3087 3087 3087 3086 3086 3086 3085 3085 3084 3084 3083 3082 3082 3082 3081 3081 3081 3081 3082 3083 3084 3085 3086 3087 3088 3088 3089 3090 3092 3093 3094 3095 3097 3098
3048 3048 3049 3050 3052 3053 3054 3056 3057 3058 3060 3062 3064 3066 3067 3069 3070 3070 3071 3072 3072 3073 3074 3075 3075 3076 3077 3077 3078 3078 3079 3080 3080 3081 3081 3082 3082 3083 3083 3083 3084 3084 3084 3084 3084 3085 3085 3085 3085 3086 3086 3086 3086 3086 3086 3085 3085 3085 3085 3085 3084 3084 3083 3083 3083 3082 3082 3082 3082 3082 3083 3084 3085 3086 3087 3087 3088 3089 3089 3090 3092 3093 3094 3095 3096 3097
3047 3048 3049 3049 3051 3052 3053 3055 3056 3058 3060 3062 3064 3066 3067 3068 3069 3070 3071 3072 3072 3073 3073 3074 3075 3076 3076 3077 3078 3078 3079 3079 3079 3080 3080 3080 3081 3081 3081 3082 3082 3082 3082 3082 3083 3083 3084 3084 3084 3084 3084 3085 3085 3085 3085 3085 3084 3085 3085 3085 3085 3084 3084 3083 3083 3083 3082 3082 3082 3083 3083 3084 3085 3086 3087 3088 3089 3089 3090 3091 3092 3093 3094 3095 3095 3096
3046 3047 3048 3050 3051 3052 3054 3056 3058 3059 3061 3063 3064 3066 3067 3068 3069 3070 3071 3072 3073 3073 3074 3075 3075 3076 3077 3077 3078 3078 3079 3079 3079 3079 3080 3080 3080 3080 3080 3081 3081 3081 3081 3081 3082 3082 3083 3083 3083 3083 3083 3083 3083 3083 3084 3084 3084 3084 3084 3085 3085 3085 3084 3084 3084 3084 3084 3082 3082 3082 3083 3084 3085 3085 3087 3088 3088 3089 3090 3091 3092 3093 3093 3095 3095 3096
3047 3048 3049 3050 3051 3053 3055 3057 3059 3060 3061 3063 3065 3066 3067 3068 3069 3070 3071 3073 3073 3074 3074 3075 3076 3076 3077 3077 3078 3078 3079 3079 3079 3079 3079 3080 3080 3080 3080 3080 3080 3080 3080 3081 3081 3081 3082 3082 3082 3082 3082 3082 3082 3082 3083 3083 3083 3083 3084 3084 3084 3084 3084 3084 3084 3084 3084 3083 3083 3083 3083 3083 3084 3085 3086 3087 3088 3088 3089 3091 3092 3093 3093 3094 3095 3096
3048 3049 3050 3051 3052 3053 3055 3058 3060 3061 3062 3064 3066 3067 3067 3068 3070 3071 3072 3073 3074 3074 3075 3075 3076 3077 3077 3078 3078 3079 3079 3079 3079 3079 3079 3080 3080 3080 3080 3080 3080 3080 3080 3081 3081 3081 3081 3081 3081 3081 3081 3081 3081 3081 3081 3082 3082 3082 3082 3083 3083 3083 3083 3084 3084 3083 3083 3082 3082 3082 3082 3083 3084 3084 3085 3086 3087 3088 3089 3090 3091 3092 3093 3094 3094 3096
3049 3050 3051 3052 3052 3054 3056 3058 3060 3061 3062 3065 3067 3067 3068 3069 3070 3071 3072 3073 3074 3074 3075 3075 3076 3076 3077 3078 3078 3079 3079 3079 3079 3079 3079 3079 3079 3080 3080 3080 3080 3080 3080 3081 3081 3081 3081 3081 3081 3081 3081 3080 3080 3080 3080 3080 3080 3080 3081 3081 3081 3082 3082 3082 3083 3083 3083 3082 3082 3081 3081 3081 3083 3084 3085 3086 3087 3087 3088 3089 3090 3091 3092 3093 3094 3095
3051 3051 3052 3053 3053 3054 3056 3059 3061 3062 3062 3064 3066 3067 3068 3069 3071 3071 3072 3073 3073 3074 3075 3075 3076 3076 3077 3078 3079 3079 3079 3080 3080 3079 3079 3079 3079 3079 3079 3080 3080 3080 3080 3080 3080 3080 3080 3080 3080 3080 3080 3080 3079 3079 3079 3079 3079 3079 3080 3080 3080 3081 3081 3081 3081 3082 3082 3083 3083 3083 3082 3081 3082 3083 3084 3085 3086 3087 3087 3088 3089 3090 3091 3091 3092 3094
3053 3054 3055 3055 3054 3056 3058 3060 3062 3063 3063 3064 3066 3068 3069 3070 3072 3072 3073 3073 3074 3074 3075 3076 3077 3078 3078 3079 3080 3080 3080 3080 3080 3080 3080 3080 3079 3079 3080 3080 3080 3080 3080 3080 3080 3080 3080 3080 3080 3080 3079 3079 3079 3079 3079 3079 3078 3079 3079 3079 3079 3080 3080 3080 3080 3080 3081 3081 3081 3082 3082 3082 3082 3082 3083 3084 3085 3085 3086 3087 3088 3088 3089 3090 3090 3091